Date,TemperatureHighF,TemperatureAvgF,TemperatureLowF,DewpointHighF,DewpointAvgF,DewpointLowF,HumidityHigh,HumidityAvg,HumidityLow,PressureMaxIn,PressureMinIn,WindSpeedMaxMPH,WindSpeedAvgMPH,GustSpeedMaxMPH,PrecipitationSumIn
2013-1-1,34.9,26.5,19.2,24.6,16.4,11.8,76,65,48,0.00,40.00,15,8,29,0.00
2013-1-2,36.2,25.7,14.6,15.4,11.9,6.1,68,56,38,0.00,40.00,11,6,17,0.00
2013-1-3,35.8,24.6,11.5,11.9,8.0,4.2,72,50,35,0.00,40.00,17,10,28,0.00
2013-1-4,41.8,30.6,21.7,15.7,10.9,7.1,61,44,31,0.00,40.00,13,7,22,0.00
2013-1-5,41.0,27.7,18.7,18.8,14.2,10.2,71,57,39,0.00,40.00,13,4,22,0.00
2013-1-6,41.6,32.2,18.5,16.2,14.1,11.4,74,48,33,0.00,40.00,14,6,24,0.00
2013-1-7,44.2,33.5,23.7,21.8,18.7,14.4,71,55,39,0.00,40.00,8,4,13,0.00
2013-1-8,49.1,39.7,30.3,24.2,19.8,12.5,61,45,24,0.00,40.00,20,6,39,0.00
2013-1-9,57.5,45.3,28.0,25.9,22.9,18.4,66,42,25,0.00,40.00,13,5,20,0.00
2013-1-10,51.2,33.1,19.5,29.1,22.3,12.4,83,65,36,0.00,40.00,20,8,29,0.00
2013-1-11,19.6,12.2,8.8,14.0,9.2,6.5,92,87,66,0.00,40.00,14,6,22,0.00
2013-1-12,17.4,10.4,3.1,9.3,6.0,0.6,91,83,64,0.00,40.00,13,4,19,0.00
2013-1-13,19.4,11.8,6.0,8.5,4.2,1.5,82,71,59,0.00,40.00,13,7,20,0.00
2013-1-14,19.0,14.0,8.0,7.7,3.4,0.5,72,62,52,0.00,40.00,16,10,26,0.00
2013-1-15,30.1,25.1,18.7,18.5,15.3,7.7,78,66,60,0.00,40.00,19,11,31,0.00
2013-1-16,41.3,32.4,27.1,23.4,18.3,15.4,62,56,43,0.00,40.00,16,8,25,0.00
2013-1-17,42.4,33.9,24.9,22.1,18.1,15.3,66,52,42,0.00,40.00,18,10,28,0.00
2013-1-18,53.5,41.4,32.7,22.9,19.4,17.1,53,41,25,0.00,40.00,16,7,24,0.00
2013-1-19,40.2,34.2,24.9,26.8,21.9,16.4,87,61,40,0.00,40.00,12,4,16,0.00
2013-1-20,37.7,23.4,16.1,21.0,16.0,10.5,84,73,47,0.00,40.00,21,8,32,0.00
2013-1-21,31.2,20.4,12.5,18.5,13.4,8.2,84,74,58,0.00,40.00,13,4,18,0.00
2013-1-22,47.5,31.3,16.7,22.6,16.9,12.7,85,58,32,0.00,40.00,10,5,16,0.00
2013-1-23,30.4,22.8,17.1,18.9,15.3,12.1,80,72,60,0.00,40.00,13,6,18,0.00
2013-1-24,54.9,37.7,20.1,27.7,21.3,15.7,83,54,32,0.00,40.00,17,4,36,0.00
2013-1-25,51.9,35.6,22.3,29.6,24.0,18.3,85,64,40,0.00,40.00,9,3,14,0.00
2013-1-26,60.2,43.6,33.6,29.5,27.3,25.8,72,54,31,0.00,40.00,9,3,14,0.00
2013-1-27,35.6,32.5,29.5,33.7,29.4,25.2,98,88,71,0.00,40.00,6,1,12,0.00
2013-1-28,40.1,30.9,21.4,28.5,21.0,9.8,94,69,29,0.00,40.00,14,4,27,0.00
2013-1-29,29.5,21.4,6.5,20.0,11.6,1.2,79,65,49,0.00,40.00,18,8,26,0.00
2013-1-30,31.8,23.7,9.5,29.5,18.8,3.0,98,82,63,0.00,40.00,14,6,24,0.00
2013-1-31,29.9,15.0,3.1,23.7,11.2,0.8,93,85,74,0.00,40.00,15,6,21,0.00
2013-2-1,46.3,38.2,29.9,32.7,26.4,21.9,80,63,38,0.00,40.00,17,7,29,0.00
2013-2-2,48.9,35.9,24.4,27.8,23.3,18.6,80,61,40,0.00,40.00,14,7,20,0.00
2013-2-3,54.5,39.3,31.9,26.3,22.2,17.2,64,51,22,0.00,40.00,16,7,24,0.00
2013-2-4,53.4,41.4,30.3,26.2,23.5,20.3,74,50,27,0.00,40.00,18,7,33,0.00
2013-2-5,52.1,40.3,30.4,30.6,25.9,23.8,77,57,39,0.00,40.00,12,5,17,0.00
2013-2-6,51.2,40.1,30.2,26.7,20.4,15.2,76,47,24,0.00,40.00,15,5,28,0.00
2013-2-7,46.0,34.0,22.9,26.1,21.5,18.7,86,61,38,0.00,40.00,6,3,10,0.00
2013-2-8,45.1,33.8,25.9,25.4,22.4,19.7,81,64,37,0.00,40.00,7,3,12,0.00
2013-2-9,44.0,32.2,22.0,29.4,23.2,18.8,94,70,44,0.00,40.00,13,3,19,0.00
2013-2-10,30.6,26.5,17.7,29.5,21.2,13.5,97,81,52,0.00,40.00,16,5,28,0.00
2013-2-11,32.9,22.0,8.3,17.1,12.1,5.6,91,67,47,0.00,40.00,17,9,27,0.00
2013-2-12,42.0,30.5,21.9,19.9,14.1,9.7,64,50,38,0.00,40.00,14,9,24,0.00
2013-2-13,50.8,36.4,29.5,33.7,23.4,14.8,95,60,33,0.00,40.00,24,9,38,0.00
2013-2-14,35.0,30.1,27.0,28.5,20.3,14.3,96,68,44,0.00,40.00,13,7,26,0.00
2013-2-15,43.5,32.6,26.2,29.6,24.7,21.6,95,74,46,0.00,40.00,13,6,22,0.00
2013-2-16,53.1,38.6,30.4,27.0,22.9,20.3,67,54,35,0.00,40.00,14,8,23,0.00
2013-2-17,45.6,37.8,32.5,30.5,24.4,17.6,75,59,33,0.00,40.00,20,8,33,0.00
2013-2-18,35.8,30.2,22.7,28.5,21.8,16.2,96,71,55,0.00,40.00,11,4,17,0.00
2013-2-19,31.6,23.4,16.6,21.0,17.0,13.9,89,77,56,0.00,40.00,11,4,16,0.00
2013-2-20,31.4,25.3,19.6,20.4,18.0,16.1,89,74,58,0.00,40.00,11,4,16,0.00
2013-2-21,39.5,28.2,21.8,28.2,21.9,18.1,94,78,50,0.00,40.00,9,2,14,0.30
2013-2-22,44.2,32.6,25.6,20.9,17.9,12.6,76,56,28,0.00,40.00,15,7,24,0.00
2013-2-23,41.7,33.7,28.9,32.5,23.7,16.0,96,68,38,0.00,40.00,13,4,27,0.00
2013-2-24,43.1,33.7,24.8,25.9,19.6,16.0,75,57,36,0.00,40.00,14,5,22,0.00
2013-2-25,47.9,35.8,25.2,22.9,17.6,14.2,71,49,28,0.00,40.00,19,8,29,0.00
2013-2-26,44.8,36.7,30.7,22.2,17.6,13.2,66,46,28,0.00,40.00,14,6,26,0.00
2013-2-27,48.5,34.0,22.5,21.3,17.1,13.2,78,53,26,0.00,40.00,11,5,18,0.00
2013-2-28,50.1,38.4,29.9,21.6,17.3,15.3,57,43,25,0.00,40.00,14,6,26,0.00
2013-3-1,61.9,46.6,29.8,29.8,25.0,17.8,66,44,29,0.00,40.00,18,8,32,0.00
2013-3-2,62.4,48.3,39.3,31.2,28.5,26.1,64,47,28,0.00,40.00,19,7,27,0.00
2013-3-3,55.5,38.4,28.8,32.7,28.5,14.5,99,69,41,0.00,40.00,30,4,47,0.00
2013-3-4,32.5,24.9,17.2,16.1,13.0,10.3,75,60,40,0.00,40.00,22,12,39,0.00
2013-3-5,31.9,21.5,9.6,22.2,14.9,6.5,88,76,61,0.00,40.00,9,6,13,0.00
2013-3-6,36.4,27.8,18.5,25.8,21.7,15.9,91,78,61,0.00,40.00,10,4,13,0.00
2013-3-7,56.6,41.0,27.8,30.4,24.5,9.7,87,57,17,0.00,40.00,14,5,23,0.00
2013-3-8,48.1,38.9,31.6,29.5,27.4,25.3,79,64,45,0.00,40.00,10,4,15,0.00
2013-3-9,48.4,36.6,25.2,26.7,20.7,15.9,90,57,28,0.00,40.00,20,5,30,0.00
2013-3-10,58.7,42.7,21.6,23.5,18.0,15.3,83,42,19,0.00,40.00,15,6,26,0.00
2013-3-11,48.9,40.0,32.2,26.7,21.5,14.4,61,47,28,0.00,40.00,19,9,33,0.00
2013-3-12,51.2,35.8,23.3,25.2,21.8,16.8,88,60,30,0.00,40.00,11,3,16,0.00
2013-3-13,69.4,49.1,33.2,28.5,24.8,22.2,67,41,19,0.00,40.00,23,6,37,0.00
2013-3-14,69.3,54.9,37.6,32.8,28.7,25.2,66,39,19,0.00,40.00,16,5,30,0.00
2013-3-15,66.9,52.3,35.9,31.3,26.6,17.3,72,40,16,0.00,40.00,23,9,35,0.00
2013-3-16,51.5,37.3,26.3,30.4,26.7,22.6,87,67,41,0.00,40.00,14,7,21,0.00
2013-3-17,43.4,34.3,23.5,31.0,18.3,6.2,91,56,21,0.00,40.00,25,10,43,0.00
2013-3-18,43.8,30.5,16.6,19.3,11.2,3.4,76,48,18,0.00,40.00,23,6,35,0.00
2013-3-19,40.0,30.8,24.8,24.9,19.6,16.9,94,64,41,0.00,40.00,13,6,20,0.00
2013-3-20,61.1,37.1,18.4,23.7,18.8,14.2,85,53,21,0.00,40.00,14,5,19,0.00
2013-3-21,48.3,41.3,33.5,32.1,17.9,6.4,81,42,19,0.00,40.00,17,8,28,0.00
2013-3-22,36.6,27.5,20.7,29.9,16.7,7.7,97,65,33,0.00,40.00,14,5,24,0.00
2013-3-23,35.5,25.6,16.9,15.9,8.8,-0.4,83,52,23,0.00,40.00,14,6,24,0.00
2013-3-24,34.8,23.7,13.6,13.8,10.0,4.0,83,58,28,0.00,40.00,15,5,20,0.00
2013-3-25,50.7,31.2,12.4,17.0,9.8,6.2,80,46,18,0.00,40.00,11,4,16,0.00
2013-3-26,55.7,40.7,26.0,23.3,16.0,10.5,63,38,21,0.00,40.00,11,4,24,0.00
2013-3-27,63.7,45.1,24.3,23.6,19.2,14.7,68,39,17,0.00,40.00,12,3,25,0.00
2013-3-28,66.0,50.2,31.3,28.9,24.5,21.2,66,39,21,0.00,40.00,8,3,14,0.00
2013-3-29,63.1,49.9,38.7,40.4,30.4,23.1,81,48,28,0.00,40.00,17,5,33,0.00
2013-3-30,61.6,51.4,41.7,40.4,27.9,20.0,82,44,21,0.00,40.00,18,6,28,0.00
2013-3-31,60.5,46.6,31.8,28.2,23.8,21.2,69,42,25,0.00,40.00,19,8,30,0.00
2013-4-1,58.9,44.1,27.9,29.8,23.3,20.9,79,47,25,0.00,40.00,15,6,22,0.00
2013-4-2,71.8,50.1,29.2,28.2,23.2,19.3,70,39,14,0.00,40.00,12,4,19,0.00
2013-4-3,67.8,54.8,45.0,32.0,27.0,21.5,54,35,21,0.00,40.00,19,7,28,0.00
2013-4-4,58.5,47.3,37.0,32.4,29.7,25.4,70,51,35,0.00,40.00,13,7,19,0.00
2013-4-5,63.1,53.0,45.2,44.7,34.7,30.4,70,50,31,0.00,40.00,16,6,29,0.00
2013-4-6,64.2,52.0,39.1,39.6,32.2,26.0,68,49,24,0.00,40.00,16,6,29,0.00
2013-4-7,62.6,49.2,34.8,42.5,37.4,30.6,96,66,32,0.00,40.00,20,5,32,0.30
2013-4-8,34.8,24.1,20.7,33.9,22.6,17.6,98,94,82,0.00,40.00,22,9,30,0.00
2013-4-9,31.2,24.3,19.3,20.4,16.4,11.0,96,72,48,0.00,40.00,8,4,14,0.00
2013-4-10,49.4,33.3,17.1,29.4,20.9,12.6,85,62,40,0.00,40.00,12,4,20,0.00
2013-4-11,57.0,46.8,36.6,34.5,29.6,21.8,70,52,31,0.00,40.00,20,9,34,0.00
2013-4-12,53.8,44.0,36.1,35.7,26.0,16.9,80,51,24,0.00,40.00,20,8,30,0.00
2013-4-13,52.6,40.3,36.3,37.8,29.7,19.9,91,66,45,0.00,40.00,20,6,38,0.60
2013-4-14,38.8,33.3,24.4,31.1,22.2,17.4,89,65,41,0.00,40.00,19,11,32,0.00
2013-4-15,35.3,27.8,21.5,25.6,20.0,16.7,88,73,48,0.00,40.00,12,4,17,0.00
2013-4-16,31.5,27.5,24.8,25.1,21.7,17.5,91,79,60,0.00,40.00,12,6,21,0.00
2013-4-17,36.9,28.1,20.1,25.5,21.5,17.1,92,77,49,0.00,40.00,16,3,20,0.00
2013-4-18,53.5,38.5,19.5,26.3,21.0,14.4,93,56,23,0.00,40.00,16,7,27,0.00
2013-4-19,58.3,48.1,38.4,43.5,29.7,23.6,89,50,31,0.00,40.00,13,6,22,0.00
2013-4-20,64.6,50.6,39.5,41.5,33.6,21.8,82,56,21,0.00,40.00,18,6,32,0.00
2013-4-21,47.2,34.2,28.0,34.8,30.3,26.3,99,86,58,0.00,40.00,16,9,23,0.00
2013-4-22,38.2,29.5,25.1,30.3,22.9,16.5,99,77,45,0.00,40.00,14,7,21,0.00
2013-4-23,51.5,36.4,20.6,30.0,18.7,8.6,82,53,18,0.00,40.00,16,8,27,0.00
2013-4-24,60.3,46.2,33.8,31.7,24.9,16.7,87,48,21,0.00,40.00,17,7,32,0.00
2013-4-25,69.3,56.1,39.8,27.4,22.6,16.4,54,30,14,0.00,40.00,14,7,26,0.00
2013-4-26,75.9,60.9,43.4,32.1,26.8,19.3,58,30,12,0.00,40.00,14,6,24,0.00
2013-4-27,77.2,64.5,45.2,32.3,26.3,19.5,57,27,12,0.00,40.00,17,8,30,0.00
2013-4-28,69.7,61.4,54.0,38.6,31.4,23.6,51,32,20,0.00,40.00,14,5,24,0.00
2013-4-29,68.1,53.1,45.2,40.5,31.8,13.3,69,46,20,0.00,40.00,23,8,45,0.00
2013-4-30,48.5,41.9,34.4,29.7,18.6,12.7,61,39,26,0.00,40.00,19,11,29,0.00
2013-5-1,51.7,39.6,28.6,23.4,18.5,11.1,71,45,21,0.00,40.00,12,4,20,0.00
2013-5-2,66.7,49.7,30.8,28.1,20.3,12.3,69,36,14,0.00,40.00,13,7,23,0.00
2013-5-3,65.9,54.0,41.6,43.3,27.5,19.7,84,38,20,0.00,40.00,13,7,23,0.00
2013-5-4,60.6,51.8,46.3,44.9,40.4,34.6,87,66,41,0.00,40.00,20,5,28,0.00
2013-5-5,69.2,54.7,36.9,39.6,32.9,28.6,88,48,24,0.00,40.00,14,5,20,0.00
2013-5-6,77.0,59.9,40.7,36.0,31.2,26.6,69,36,18,0.00,40.00,12,5,17,0.00
2013-5-7,82.2,64.3,44.4,37.5,32.6,26.4,68,35,14,0.00,40.00,18,6,25,0.00
2013-5-8,72.1,61.7,49.7,40.3,37.7,30.3,58,41,28,0.00,40.00,17,7,25,0.00
2013-5-9,75.8,61.2,45.4,47.3,39.3,36.5,74,47,24,0.00,40.00,11,5,19,0.00
2013-5-10,71.2,60.2,47.0,44.0,35.3,23.3,74,42,23,0.00,40.00,21,9,33,0.00
2013-5-11,80.1,61.7,40.4,38.4,30.4,24.0,56,32,19,0.00,40.00,12,4,19,0.00
2013-5-12,90.6,74.2,56.4,41.8,36.9,25.6,48,28,10,0.00,40.00,16,6,30,0.00
2013-5-13,93.3,77.3,61.0,44.2,37.7,27.0,48,27,9,0.00,40.00,17,5,29,0.00
2013-5-14,84.3,70.2,57.5,45.7,35.5,27.1,63,31,15,0.00,40.00,23,7,36,0.00
2013-5-15,76.4,65.4,50.2,42.2,28.4,19.5,45,25,19,0.00,40.00,15,6,19,0.00
2013-5-16,71.3,60.5,55.1,53.4,47.1,43.2,90,63,39,0.00,40.00,13,6,24,0.14
2013-5-17,60.7,56.4,53.2,55.8,52.5,49.3,97,86,73,0.00,40.00,8,2,12,0.28
2013-5-18,62.0,55.5,52.6,55.3,52.8,49.5,97,90,74,0.00,40.00,13,2,19,0.42
2013-5-19,54.8,52.9,51.2,52.5,50.6,48.7,96,91,86,0.00,40.00,16,6,29,0.70
2013-5-20,67.3,57.3,51.0,50.3,42.9,23.1,91,63,19,0.00,40.00,20,9,32,0.00
2013-5-21,68.4,56.2,43.4,44.7,39.5,30.6,92,59,26,0.00,40.00,21,7,30,0.00
2013-5-22,67.1,55.0,46.5,46.9,44.1,42.6,87,68,47,0.00,40.00,28,15,39,0.00
2013-5-23,71.6,60.5,53.9,54.5,47.2,43.8,88,62,42,0.00,40.00,23,13,32,0.00
2013-5-24,73.5,61.8,52.0,52.1,37.8,26.9,89,47,18,0.00,40.00,17,7,28,0.00
2013-5-25,77.9,63.6,47.5,43.6,39.4,35.0,73,43,24,0.00,40.00,17,6,25,0.00
2013-5-26,77.8,63.1,52.8,56.8,48.4,40.2,83,59,35,0.00,40.00,16,5,29,0.00
2013-5-27,71.4,58.3,51.7,52.1,47.7,40.4,86,69,43,0.00,40.00,24,4,37,0.00
2013-5-28,72.4,59.9,48.6,51.5,46.3,41.2,93,64,34,0.00,40.00,13,4,21,0.00
2013-5-29,56.1,54.0,52.6,53.3,51.7,50.1,97,91,84,0.00,40.00,12,3,19,1.08
2013-5-30,55.9,52.5,50.5,52.0,48.2,44.7,96,85,68,0.00,40.00,20,8,38,0.56
2013-5-31,57.1,52.4,48.1,45.6,42.5,39.5,87,69,55,0.00,40.00,24,12,42,0.00
2013-6-1,72.8,59.7,48.0,47.2,43.2,37.8,87,57,32,0.00,40.00,13,5,20,0.00
2013-6-2,76.1,64.7,54.0,53.4,47.4,43.1,81,55,32,0.00,40.00,18,8,26,0.00
2013-6-3,62.4,54.0,47.1,53.4,41.6,36.8,90,64,40,0.00,40.00,24,13,42,0.14
2013-6-4,55.9,49.0,43.0,42.6,39.2,36.7,83,69,54,0.00,40.00,12,5,19,0.00
2013-6-5,71.1,57.0,39.7,44.3,39.1,31.6,92,56,24,0.00,40.00,13,4,18,0.00
2013-6-6,81.7,65.4,48.5,51.5,46.5,40.5,85,53,25,0.00,40.00,16,6,22,0.00
2013-6-7,86.7,70.4,52.8,55.6,48.5,37.2,89,51,18,0.00,40.00,15,4,26,0.00
2013-6-8,80.2,69.9,62.3,46.9,43.7,36.6,56,39,23,0.00,40.00,18,9,31,0.00
2013-6-9,86.4,70.6,51.6,52.2,47.2,39.8,84,47,23,0.00,40.00,14,5,22,0.00
2013-6-10,79.5,67.9,55.6,55.1,48.1,40.0,75,51,26,0.00,40.00,16,7,29,0.00
2013-6-11,82.6,66.3,58.1,61.7,56.0,51.0,91,70,49,0.00,40.00,25,7,36,0.14
2013-6-12,74.6,63.8,55.0,60.9,56.8,53.2,93,78,57,0.00,40.00,27,6,41,0.00
2013-6-13,79.5,68.2,52.9,58.8,54.4,48.2,91,63,34,0.00,40.00,25,9,54,0.14
2013-6-14,69.6,60.7,51.2,49.6,40.8,31.3,86,51,25,0.00,40.00,22,8,36,0.00
2013-6-15,80.9,64.2,47.2,45.2,38.1,27.1,78,43,16,0.00,40.00,10,4,17,0.00
2013-6-16,77.8,66.6,51.0,48.6,45.0,37.8,82,48,29,0.00,40.00,13,7,19,0.00
2013-6-17,80.8,69.3,55.5,53.8,50.4,47.4,76,52,34,0.00,40.00,17,8,25,0.00
2013-6-18,90.6,74.3,60.2,60.0,52.2,43.6,70,48,22,0.00,40.00,16,5,25,0.00
2013-6-19,88.2,72.7,57.7,57.2,50.4,32.7,73,47,28,0.00,40.00,23,10,46,0.00
2013-6-20,79.4,66.5,54.5,38.6,30.9,24.5,41,27,14,0.00,40.00,16,6,22,0.00
2013-6-21,74.4,64.5,56.6,50.1,45.3,37.0,77,50,35,0.00,40.00,23,9,34,0.00
2013-6-22,69.6,59.1,54.6,52.2,49.3,43.3,87,70,51,0.00,40.00,17,5,36,0.00
2013-6-23,81.8,65.0,49.2,49.1,44.9,40.5,89,53,24,0.00,40.00,13,6,19,0.00
2013-6-24,87.8,72.0,55.0,57.2,50.0,40.6,78,48,19,0.00,40.00,16,4,35,0.00
2013-6-25,86.0,75.2,64.3,56.1,46.3,35.8,73,38,18,0.00,40.00,14,5,33,0.00
2013-6-26,85.2,74.4,65.3,60.8,49.9,45.3,79,44,26,0.00,40.00,14,5,25,0.00
2013-6-27,90.1,75.0,61.0,60.7,55.9,50.0,87,55,26,0.00,40.00,15,5,24,0.00
2013-6-28,92.8,77.7,61.5,57.5,54.2,50.0,77,47,24,0.00,40.00,14,5,22,0.00
2013-6-29,89.2,76.4,63.9,62.1,56.3,52.6,88,52,31,0.00,40.00,24,7,37,0.00
2013-6-30,90.5,77.2,62.6,63.5,58.8,54.2,88,56,31,0.00,40.00,12,5,21,0.00
2013-7-1,91.8,79.2,64.9,60.1,55.6,50.8,73,47,26,0.00,40.00,11,5,16,0.00
2013-7-2,94.9,80.5,64.2,59.6,53.7,46.7,76,43,21,0.00,40.00,13,5,19,0.00
2013-7-3,99.5,83.6,65.2,59.0,51.8,40.3,69,37,13,0.00,40.00,14,6,24,0.00
2013-7-4,91.3,78.8,70.6,67.3,60.6,54.4,74,55,29,0.00,40.00,22,7,32,0.00
2013-7-5,81.9,72.5,63.9,62.4,58.0,53.6,88,62,39,0.00,40.00,16,5,29,0.00
2013-7-6,84.1,72.3,62.5,59.2,54.9,48.6,85,57,31,0.00,40.00,19,7,29,0.00
2013-7-7,86.1,71.9,60.9,58.9,54.9,45.9,79,57,29,0.00,40.00,19,4,29,0.00
2013-7-8,91.7,72.4,61.5,61.9,56.9,52.8,93,61,29,0.00,40.00,22,4,43,0.47
2013-7-9,82.0,72.2,61.4,62.4,55.7,47.1,90,60,34,0.00,40.00,14,6,22,0.00
2013-7-10,96.7,78.0,59.0,58.2,48.4,34.1,82,44,11,0.00,40.00,17,6,26,0.00
2013-7-11,96.2,83.0,69.6,57.8,48.4,38.4,58,32,14,0.00,40.00,16,7,29,0.00
2013-7-12,92.3,79.7,68.6,58.6,49.8,40.7,64,37,18,0.00,40.00,17,6,26,0.00
2013-7-13,86.6,72.7,61.2,58.9,54.7,52.1,76,55,31,0.00,40.00,21,8,32,0.14
2013-7-14,85.4,72.7,59.7,55.7,51.2,40.8,75,49,31,0.00,40.00,18,9,26,0.00
2013-7-15,99.7,81.0,61.9,60.1,49.7,30.1,80,42,9,0.00,40.00,14,5,22,0.00
2013-7-16,84.0,66.4,61.6,55.3,49.3,43.5,74,54,26,0.00,40.00,21,8,33,0.00
2013-7-17,84.0,70.0,60.5,63.6,58.6,55.1,85,68,46,0.00,40.00,8,3,13,0.00
2013-7-18,95.1,79.1,62.5,59.8,48.9,22.4,81,42,8,0.00,40.00,15,6,24,0.00
2013-7-19,95.2,78.9,61.8,52.6,45.0,27.3,60,33,10,0.00,40.00,14,5,21,0.00
2013-7-20,92.4,78.0,61.2,51.9,45.3,37.7,57,34,15,0.00,40.00,12,5,19,0.00
2013-7-21,93.8,79.0,59.9,49.4,42.4,22.7,63,31,8,0.00,40.00,15,7,22,0.00
2013-7-22,96.3,79.8,64.4,53.8,45.7,22.1,60,34,7,0.00,40.00,16,6,26,0.00
2013-7-23,93.5,77.7,60.9,54.6,48.3,36.2,60,38,14,0.00,40.00,17,6,26,0.00
2013-7-24,95.8,79.7,62.2,57.2,48.6,40.5,70,38,15,0.00,40.00,23,7,33,0.00
2013-7-25,84.7,73.8,63.6,55.1,52.8,50.4,68,49,31,0.00,40.00,25,10,39,0.00
2013-7-26,86.9,70.7,56.6,53.7,50.0,46.2,71,50,28,0.00,40.00,16,9,25,0.00
2013-7-27,90.4,74.9,60.0,54.8,47.7,40.2,65,40,18,0.00,40.00,20,4,33,0.00
2013-7-28,80.9,72.1,62.5,55.5,52.1,46.5,77,50,35,0.00,40.00,20,6,33,0.00
2013-7-29,76.2,66.7,58.7,56.0,52.3,49.3,84,61,44,0.00,40.00,19,8,28,0.00
2013-7-30,78.9,68.1,59.2,59.5,54.1,51.4,86,62,40,0.00,40.00,13,6,19,0.00
2013-7-31,89.6,71.9,54.5,58.0,50.7,41.8,91,55,20,0.00,40.00,12,4,17,0.00
2013-8-1,83.0,72.7,62.2,57.3,52.3,49.4,83,50,33,0.00,40.00,27,9,40,0.00
2013-8-2,74.9,66.5,59.8,60.2,57.6,55.3,91,74,52,0.00,40.00,15,8,22,0.00
2013-8-3,82.8,67.4,57.8,61.8,59.0,55.9,94,76,47,0.00,40.00,16,6,26,0.00
2013-8-4,85.4,71.5,59.6,60.3,57.1,53.6,86,63,34,0.00,40.00,16,5,24,0.00
2013-8-5,93.1,75.1,63.0,60.3,51.8,37.1,78,48,15,0.00,40.00,23,5,44,0.00
2013-8-6,86.1,73.3,60.1,52.9,49.0,41.6,76,45,22,0.00,40.00,14,5,24,0.00
2013-8-7,89.0,72.3,57.7,53.2,48.7,42.2,71,46,20,0.00,40.00,20,5,29,0.00
2013-8-8,84.2,70.8,56.7,55.2,52.0,50.3,79,54,32,0.00,40.00,19,8,26,0.00
2013-8-9,78.2,67.6,59.7,61.6,54.9,48.8,82,64,40,0.00,40.00,18,8,30,0.00
2013-8-10,84.1,70.8,58.1,61.2,56.5,44.0,95,65,26,0.00,40.00,12,4,16,0.00
2013-8-11,88.5,74.3,58.4,55.5,51.2,43.4,74,47,22,0.00,40.00,13,4,18,0.00
2013-8-12,89.5,75.1,58.3,57.3,51.4,47.9,69,46,25,0.00,40.00,23,6,33,0.00
2013-8-13,86.2,73.8,61.4,56.2,50.9,43.3,69,46,27,0.00,40.00,17,6,26,0.00
2013-8-14,90.5,73.9,58.6,51.2,47.4,36.3,67,42,15,0.00,40.00,19,5,24,0.00
2013-8-15,93.4,75.5,57.6,54.7,47.6,26.8,75,42,9,0.00,40.00,12,5,17,0.00
2013-8-16,96.7,77.6,59.8,52.4,45.6,37.3,64,36,13,0.00,40.00,14,5,22,0.00
2013-8-17,92.4,78.6,62.2,50.3,44.7,37.5,48,32,18,0.00,40.00,12,5,17,0.00
2013-8-18,91.3,79.0,63.9,51.7,48.1,45.0,57,35,21,0.00,40.00,14,6,22,0.00
2013-8-19,98.2,80.5,61.7,52.2,43.5,22.0,63,32,6,0.00,40.00,12,4,21,0.00
2013-8-20,95.9,79.5,62.7,47.0,39.3,30.7,50,27,10,0.00,40.00,10,3,16,0.00
2013-8-21,85.4,75.2,62.7,49.1,45.3,39.3,55,36,23,0.00,40.00,16,7,23,0.00
2013-8-22,90.7,76.6,61.4,56.5,52.2,45.9,67,44,27,0.00,40.00,12,5,17,0.00
2013-8-23,98.9,79.4,66.9,55.2,50.8,33.6,62,41,10,0.00,40.00,22,5,40,0.00
2013-8-24,90.8,77.6,70.5,57.5,51.4,40.7,59,42,21,0.00,40.00,13,4,23,0.00
2013-8-25,96.0,79.8,66.9,54.0,47.2,27.5,58,35,9,0.00,40.00,10,3,16,0.00
2013-8-26,96.5,83.8,72.1,52.8,45.9,35.2,50,28,12,0.00,40.00,15,4,23,0.00
2013-8-27,92.9,81.7,68.4,51.9,48.1,43.3,53,32,18,0.00,40.00,13,5,22,0.00
2013-8-28,96.2,80.4,66.6,54.9,52.1,46.5,60,39,20,0.00,40.00,16,4,31,0.00
2013-8-29,92.9,75.2,60.7,60.3,53.9,44.0,75,50,21,0.00,40.00,17,4,33,0.00
2013-8-30,96.6,78.4,62.9,58.0,51.2,36.1,78,44,12,0.00,40.00,10,4,19,0.00
2013-8-31,85.3,74.9,65.3,50.9,44.1,36.7,57,34,19,0.00,40.00,12,5,21,0.00
2013-9-1,89.5,71.8,53.6,49.1,43.5,39.0,61,38,21,0.00,40.00,9,4,14,0.00
2013-9-2,91.0,73.2,57.3,63.4,49.3,43.1,72,45,21,0.00,40.00,14,4,26,0.00
2013-9-3,94.8,79.6,64.0,62.8,53.8,46.5,78,45,21,0.00,40.00,10,4,14,0.00
2013-9-4,96.8,80.0,70.4,59.7,55.1,49.8,58,43,22,0.00,40.00,16,5,25,0.00
2013-9-5,99.0,77.4,61.7,64.0,57.9,54.4,80,54,24,0.00,40.00,17,4,39,0.00
2013-9-6,94.1,75.8,64.4,65.3,61.0,53.9,83,62,34,0.00,40.00,19,5,35,0.24
2013-9-7,90.8,73.3,54.8,63.0,58.7,49.6,97,63,27,0.00,40.00,28,6,49,0.00
2013-9-8,79.6,66.8,60.0,63.5,58.3,43.1,93,76,27,0.00,40.00,26,4,52,0.00
2013-9-9,78.3,67.3,57.8,56.3,50.9,45.1,90,58,33,0.00,40.00,12,4,27,0.00
2013-9-10,83.9,68.3,53.2,52.0,46.3,33.7,88,51,17,0.00,40.00,10,4,12,0.00
2013-9-11,82.8,68.5,52.7,51.6,48.1,43.5,80,51,27,0.00,40.00,13,5,20,0.00
2013-9-12,84.7,69.2,55.7,54.4,49.5,46.7,76,51,28,0.00,40.00,11,4,18,0.00
2013-9-13,79.4,68.1,59.8,59.6,54.7,51.3,93,63,44,0.00,40.00,10,4,16,0.14
2013-9-14,66.2,62.5,59.4,62.6,60.0,53.9,98,91,71,0.00,40.00,10,4,16,0.80
2013-9-15,76.5,65.7,57.1,60.2,54.4,50.9,81,67,47,0.00,40.00,19,9,27,0.00
2013-9-16,87.3,70.8,56.2,59.1,55.5,52.7,92,62,32,0.00,40.00,11,3,14,0.00
2013-9-17,77.3,66.4,60.3,57.3,55.1,49.6,87,68,42,0.00,40.00,12,4,18,0.00
2013-9-18,71.2,61.4,55.5,57.1,47.6,40.1,90,62,39,0.00,40.00,17,7,28,0.00
2013-9-19,66.7,55.7,49.0,44.0,39.7,37.0,70,56,34,0.00,40.00,12,4,23,0.00
2013-9-20,78.9,59.9,42.3,45.7,40.5,33.2,91,55,21,0.00,40.00,15,2,20,0.00
2013-9-21,88.8,65.8,43.5,47.0,40.6,32.0,83,47,13,0.00,40.00,10,3,16,0.00
2013-9-22,74.9,65.1,56.6,47.6,43.2,38.8,65,46,29,0.00,40.00,14,5,25,0.00
2013-9-23,73.0,62.9,53.5,46.6,38.2,28.0,65,43,19,0.00,40.00,19,7,36,0.00
2013-9-24,78.3,59.8,43.8,44.5,38.8,32.0,81,49,19,0.00,40.00,17,4,30,0.00
2013-9-25,55.8,50.6,47.5,48.6,44.9,39.4,97,81,55,0.00,40.00,11,5,17,0.42
2013-9-26,50.7,45.9,41.1,46.7,39.3,35.8,97,78,60,0.00,40.00,14,4,23,0.28
2013-9-27,54.8,46.5,42.1,41.2,38.1,35.4,91,73,50,0.00,40.00,13,5,19,0.00
2013-9-28,67.8,54.2,42.6,38.8,37.1,35.5,80,55,32,0.00,40.00,15,9,25,0.00
2013-9-29,73.9,60.5,48.9,40.9,38.2,35.5,70,44,25,0.00,40.00,25,8,40,0.00
2013-9-30,74.0,54.3,44.9,46.4,36.2,22.0,85,55,24,0.00,40.00,26,8,45,0.00
2013-10-1,69.9,56.1,40.0,37.0,31.7,24.6,70,40,23,0.00,40.00,20,6,32,0.00
2013-10-2,59.9,52.5,46.2,41.5,34.0,25.8,83,51,29,0.00,40.00,16,6,23,0.00
2013-10-3,46.2,39.5,34.2,43.1,37.5,33.5,97,92,83,0.00,40.00,22,12,32,1.40
2013-10-4,45.6,38.2,32.9,34.5,31.5,26.7,98,78,49,0.00,40.00,14,5,24,0.00
2013-10-5,55.3,40.8,28.1,36.6,31.0,25.2,91,69,46,0.00,40.00,16,8,25,0.00
2013-10-6,67.0,52.8,42.1,39.7,34.8,29.2,66,51,31,0.00,40.00,14,9,23,0.00
2013-10-7,65.8,54.7,41.5,43.4,39.3,34.9,78,57,38,0.00,40.00,14,6,23,0.00
2013-10-8,62.9,52.3,43.5,42.4,37.3,31.9,84,59,33,0.00,40.00,13,4,20,0.00
2013-10-9,56.6,47.2,38.2,41.5,37.4,33.1,88,70,49,0.00,40.00,12,3,16,0.00
2013-10-10,56.2,45.8,36.6,47.9,41.2,34.9,96,84,64,0.00,40.00,8,2,14,0.00
2013-10-11,53.2,46.3,35.8,44.9,36.6,31.3,93,70,43,0.00,40.00,17,5,30,0.00
2013-10-12,54.3,41.7,30.9,39.3,33.7,29.2,95,75,44,0.00,40.00,11,5,17,0.00
2013-10-13,44.4,40.4,34.2,41.7,35.1,31.4,95,82,64,0.00,40.00,14,3,22,0.00
2013-10-14,48.0,41.8,37.5,39.7,34.4,27.2,95,77,46,0.00,40.00,13,6,22,0.14
2013-10-15,52.3,42.0,34.2,36.2,32.6,27.9,94,71,40,0.00,40.00,12,5,19,0.00
2013-10-16,54.9,43.2,36.9,37.4,31.5,26.9,90,65,34,0.00,40.00,23,10,35,0.00
2013-10-17,47.9,39.8,36.5,38.7,35.1,32.0,96,84,59,0.00,40.00,16,3,28,0.00
2013-10-18,57.6,45.6,34.8,35.7,31.0,25.6,86,59,30,0.00,40.00,14,6,24,0.00
2013-10-19,61.8,50.9,39.8,38.4,30.8,28.4,63,47,30,0.00,40.00,14,8,28,0.00
2013-10-20,56.7,49.4,43.4,38.3,34.8,29.5,76,57,39,0.00,40.00,16,6,27,0.00
2013-10-21,62.7,52.3,44.0,38.9,37.1,34.6,80,57,35,0.00,40.00,13,5,24,0.00
2013-10-22,67.2,51.2,38.4,41.4,38.7,35.2,88,65,35,0.00,40.00,9,4,14,0.00
2013-10-23,58.7,47.0,36.3,41.8,38.5,33.7,91,73,49,0.00,40.00,13,4,20,0.00
2013-10-24,60.3,46.0,34.5,43.4,39.0,33.2,95,78,51,0.00,40.00,7,3,11,0.00
2013-10-25,71.4,52.9,40.0,41.8,37.4,33.6,92,59,27,0.00,40.00,12,5,19,0.00
2013-10-26,69.5,50.2,34.1,40.9,35.3,31.4,91,61,27,0.00,40.00,15,6,22,0.00
2013-10-27,62.2,47.3,35.9,36.6,32.6,26.1,84,60,26,0.00,40.00,25,8,36,0.00
2013-10-28,36.1,29.0,24.5,31.7,27.8,23.5,99,95,77,0.00,40.00,22,13,32,0.00
2013-10-29,35.4,28.7,25.4,28.6,26.2,24.9,99,90,73,0.00,40.00,8,2,12,0.00
2013-10-30,53.3,36.1,23.0,37.7,30.3,22.6,98,81,52,0.00,40.00,9,3,14,0.00
2013-10-31,57.3,46.0,34.5,36.5,32.2,28.2,89,60,40,0.00,40.00,22,8,46,0.00
2013-11-1,56.8,47.2,36.5,29.7,27.9,24.9,72,48,29,0.00,40.00,14,7,25,0.00
2013-11-2,58.3,42.0,30.6,37.6,32.1,26.7,86,69,44,0.00,40.00,17,3,29,0.00
2013-11-3,48.8,42.5,33.9,36.3,26.8,14.5,79,55,26,0.00,40.00,16,6,30,0.00
2013-11-4,37.9,32.2,29.1,30.3,25.6,22.1,95,77,62,0.00,40.00,10,4,13,0.00
2013-11-5,43.7,32.9,24.5,28.1,23.4,15.5,96,71,32,0.00,40.00,11,5,14,0.00
2013-11-6,50.6,40.5,32.0,30.7,24.2,19.6,71,52,32,0.00,40.00,20,5,36,0.00
2013-11-7,52.6,41.6,31.2,32.9,28.5,23.8,74,60,44,0.00,40.00,7,3,11,0.00
2013-11-8,53.2,47.6,41.7,36.6,26.9,22.8,74,45,30,0.00,40.00,20,10,38,0.00
2013-11-9,50.2,42.0,33.4,28.4,23.7,21.1,70,48,35,0.00,40.00,8,3,12,0.00
2013-11-10,46.0,36.7,26.9,32.3,27.5,22.4,85,70,50,0.00,40.00,19,7,25,0.00
2013-11-11,31.0,24.0,18.7,28.6,22.0,17.8,96,92,81,0.00,40.00,11,4,16,0.00
2013-11-12,62.4,39.7,16.8,41.1,27.2,15.7,96,67,33,0.00,40.00,12,4,19,0.00
2013-11-13,61.1,51.9,44.1,37.6,31.6,23.8,63,46,34,0.00,40.00,19,6,34,0.00
2013-11-14,49.7,40.0,30.8,29.9,26.5,23.5,81,58,42,0.00,40.00,9,2,13,0.00
2013-11-15,51.3,38.0,24.7,30.5,22.4,18.5,90,58,27,0.00,40.00,16,5,28,0.00
2013-11-16,49.6,40.8,37.0,31.4,26.9,23.1,74,58,39,0.00,40.00,14,4,29,0.00
2013-11-17,46.3,38.1,32.2,27.9,21.4,15.9,67,51,30,0.00,40.00,18,6,32,0.00
2013-11-18,61.0,40.6,25.4,29.3,23.1,19.7,79,54,20,0.00,40.00,14,4,23,0.00
2013-11-19,63.3,48.9,30.2,29.9,26.9,19.9,65,43,27,0.00,40.00,19,5,25,0.00
2013-11-20,29.4,17.0,10.4,19.3,11.5,3.6,91,78,65,0.00,40.00,22,10,33,0.00
2013-11-21,23.3,12.2,0.9,12.1,5.7,-2.7,87,75,61,0.00,40.00,15,6,23,0.00
2013-11-22,35.9,23.9,17.8,15.4,10.7,7.1,71,57,40,0.00,40.00,17,8,31,0.00
2013-11-23,39.7,25.9,14.9,17.1,11.6,7.9,75,55,36,0.00,40.00,12,7,21,0.00
2013-11-24,48.4,35.5,26.4,22.1,17.4,12.1,69,48,33,0.00,40.00,16,8,26,0.00
2013-11-25,46.7,33.3,24.8,27.2,22.5,19.3,81,65,42,0.00,40.00,7,2,10,0.00
2013-11-26,48.7,35.4,26.4,28.5,25.0,22.1,85,66,45,0.00,40.00,10,3,18,0.00
2013-11-27,55.1,41.5,27.0,28.4,25.1,22.7,83,53,35,0.00,40.00,16,7,23,0.00
2013-11-28,43.1,31.2,21.1,28.8,24.3,18.8,91,76,54,0.00,40.00,8,3,10,0.00
2013-11-29,59.5,43.0,30.7,30.6,27.4,25.3,80,56,27,0.00,40.00,11,5,16,0.00
2013-11-30,53.3,41.6,35.0,32.2,28.9,25.5,72,60,41,0.00,40.00,8,3,12,0.00
2013-12-1,49.2,42.5,35.7,32.6,30.1,27.5,74,61,48,0.00,40.00,8,4,16,0.00
2013-12-2,45.5,36.4,20.6,37.9,32.9,19.8,99,88,59,0.00,40.00,16,6,26,0.80
2013-12-3,20.7,13.3,7.4,19.9,11.8,5.5,96,93,92,0.00,40.00,13,5,20,0.00
2013-12-4,9.8,5.5,0.1,6.9,1.6,-7.4,92,84,62,0.00,40.00,8,3,13,0.00
2013-12-5,3.7,-5.6,-13.5,-2.8,-10.3,-17.1,86,79,69,0.00,40.00,6,2,9,0.00
2013-12-6,-4.7,-11.3,-17.0,-8.5,-15.3,-20.9,85,82,73,0.00,40.00,12,4,16,0.00
2013-12-7,-10.2,-15.9,-19.6,-13.8,-19.7,-23.7,83,82,81,0.00,40.00,7,3,10,0.00
2013-12-8,7.1,-2.6,-17.6,0.8,-7.9,-21.5,83,78,69,0.00,40.00,13,6,22,0.00
2013-12-9,20.0,11.6,-0.7,10.5,3.2,-5.6,83,68,59,0.00,40.00,20,11,36,0.00
2013-12-10,30.8,22.1,11.5,22.8,15.3,8.6,94,76,57,0.00,40.00,16,8,29,0.00
2013-12-11,29.5,19.0,4.8,16.8,11.4,2.6,93,73,53,0.00,40.00,17,7,26,0.00
2013-12-12,39.5,33.6,27.3,22.9,19.0,15.5,61,54,47,0.00,40.00,13,8,19,0.00
2013-12-13,44.4,36.5,29.8,33.0,25.6,19.9,77,64,53,0.00,40.00,10,4,19,0.00
2013-12-14,45.3,36.0,26.6,28.1,24.7,20.3,78,63,49,0.00,40.00,18,8,31,0.00
2013-12-15,54.0,43.1,35.2,27.0,25.4,22.5,65,50,29,0.00,40.00,21,7,32,0.00
2013-12-16,55.0,42.5,31.7,29.3,25.4,23.2,76,52,31,0.00,40.00,12,4,21,0.00
2013-12-17,51.2,38.9,24.7,28.3,25.6,22.5,92,62,38,0.00,40.00,15,6,22,0.00
2013-12-18,47.3,39.5,26.3,29.8,27.3,24.1,95,63,41,0.00,40.00,19,8,26,0.00
2013-12-19,26.2,8.3,-1.8,23.9,4.9,-4.5,92,86,70,0.00,40.00,22,7,30,0.00
2013-12-20,26.7,18.7,0.6,16.0,10.0,-2.4,87,69,52,0.00,40.00,14,7,26,0.00
2013-12-21,30.2,24.6,15.7,27.3,20.2,13.1,92,83,70,0.00,40.00,10,3,13,0.00
2013-12-22,15.6,9.6,-3.3,13.2,7.2,-6.2,93,89,81,0.00,40.00,12,5,17,0.00
2013-12-23,41.7,18.1,-6.4,34.2,11.9,-9.5,95,77,58,0.00,40.00,16,7,30,0.14
2013-12-24,42.0,38.6,33.4,35.5,24.9,18.7,92,58,41,0.00,40.00,17,9,31,0.38
2013-12-25,38.2,31.4,19.8,22.2,18.2,14.4,79,58,47,0.00,40.00,18,8,30,0.00
2013-12-26,46.9,38.3,30.4,27.0,22.5,19.3,64,52,45,0.00,40.00,20,9,31,0.00
2013-12-27,53.8,44.1,38.8,29.9,26.9,24.6,59,50,39,0.00,40.00,17,9,26,0.00
2013-12-28,47.5,25.2,13.0,28.7,14.4,5.2,77,63,43,0.00,40.00,23,7,33,0.00
2013-12-29,40.8,25.4,13.6,23.7,15.5,7.6,86,66,50,0.00,40.00,15,5,22,0.00
2013-12-30,45.6,39.3,34.3,26.8,24.5,23.5,65,55,46,0.00,40.00,13,6,24,0.00
2013-12-31,47.4,39.0,32.9,35.7,28.7,24.5,97,68,49,0.00,40.00,12,5,24,0.28
2014-1-1,38.0,30.1,23.3,35.0,28.3,21.1,100,93,75,0.00,40.00,11,3,18,0.14
2014-1-2,40.9,31.3,18.9,25.6,22.2,16.7,94,70,53,0.00,40.00,18,9,28,0.00